Simultaneous Nadir Overpasses (SNOs) Predictions

Prediction of SNOs between GOES-17 and AQUA Satellite Orbit:

Table of predicted SNOs for the next 14.0 days since TLE Epoch: 5/4/2024
Index Date Time (GOES-17) GOES-17 Lat,Lon AQUA Lat,Lon Distance(km) Time Diff (sec)
1 05/04/2024 09:00:44 0.00,-104.70 -0.20,-103.70 113.91 80
2 05/04/2024 21:21:06 -0.00,-104.70 -0.82,-108.63 447.35 80
3 05/06/2024 21:07:32 -0.00,-104.70 0.01,-104.66 4.48 80
4 05/08/2024 20:51:18 -0.00,-104.70 0.87,-100.69 456.35 80
5 05/09/2024 09:11:30 -0.00,-104.71 0.21,-105.58 98.79 80
6 05/11/2024 08:52:36 -0.01,-104.72 -0.70,-101.62 353.19 80
7 05/11/2024 21:12:56 0.01,-104.70 -0.40,-106.53 208.01 80
8 05/13/2024 20:59:21 0.02,-104.71 0.50,-102.57 244.49 80
9 05/14/2024 09:19:33 -0.02,-104.72 0.56,-107.45 310.14 80
10 05/16/2024 09:00:36 -0.00,-104.73 -0.27,-103.47 143.73 80
11 05/16/2024 21:20:55 0.00,-104.72 -0.80,-108.38 417.12 80
